Change the Weather History Date:

Friday, September 26, 2014

  Actual Average Record
Temperature  
Mean Temperature 62 °F -  
Max Temperature 77 °F 69 °F 90 °F (2007)
Min Temperature 48 °F 48 °F 33 °F (1949)
Degree Days  
Heating Degree Days 4    
Growing Degree Days 12 (Base 50)    
Moisture  
Dew Point 52 °F    
Average Humidity 71    
Maximum Humidity 93    
Minimum Humidity 43    
Precipitation  
Precipitation 0.00 in - - ()
Sea Level Pressure  
Sea Level Pressure 30.21 in    
Wind  
Wind Speed 4 mph (North)    
Max Wind Speed 13 mph    
Max Gust Speed 20 mph    
Visibility 10 miles    
Events      
Averages and records for this station are not official NWS values.
T = Trace of Precipitation, MM = Missing Value Source: NWS Daily Summary

Daily Weather History Graph

Daily Weather History Graph

Search for Another Location

Airport or City:

Trip Planner

Search our weather history database for the weather conditions in past years. The results will help you decide how hot, cold, wet, or windy it might be!

Date:

Astronomy

Sep. 26, 2014 Rise Set
Actual Time 6:45 AM EDT 6:44 PM EDT
Civil Twilight 6:17 AM EDT 7:11 PM EDT
Nautical Twilight 5:45 AM EDT 7:43 PM EDT
Astronomical Twilight 5:12 AM EDT 8:16 PM EDT
Moon 9:00 AM EDT (9/26) 8:00 PM EDT (9/26)
Length of Visible Light 12h 53m
Length of Day
11h 58m
Waxing Crescent, 6% of the Moon is Illuminated
Sep 26
Waxing Crescent
Oct 1
First Quarter
Oct 8
Full
Oct 15
Last Quarter
Oct 23
New

Hourly Weather History & Observations

Time (EDT) Temp. Dew Point Humidity Pressure Visibility Wind Dir Wind Speed Gust Speed Precip Events Conditions
12:53 AM 55.9 °F 52.0 °F 87% 30.24 in 10.0 mi NNE 3.5 mph - N/A   Scattered Clouds
1:53 AM 57.9 °F 50.0 °F 75% 30.23 in 10.0 mi Calm Calm - N/A   Mostly Cloudy
2:53 AM 55.9 °F 51.1 °F 84% 30.22 in 10.0 mi Calm Calm - N/A   Mostly Cloudy
3:53 AM 55.0 °F 51.1 °F 86% 30.22 in 10.0 mi Calm Calm - N/A   Clear
4:53 AM 51.1 °F 48.9 °F 92% 30.23 in 7.0 mi Calm Calm - N/A   Clear
5:53 AM 50.0 °F 48.0 °F 93% 30.22 in 9.0 mi Calm Calm - N/A   Clear
6:53 AM 48.0 °F 46.0 °F 93% 30.23 in 6.0 mi SW 3.5 mph - N/A   Clear
7:53 AM 52.0 °F 50.0 °F 93% 30.23 in 8.0 mi Calm Calm - N/A   Clear
8:37 AM 61.0 °F 52.0 °F 72% 30.24 in 10.0 mi NE 4.6 mph - N/A   Clear
8:53 AM 62.1 °F 52.0 °F 70% 30.24 in 10.0 mi ENE 5.8 mph - N/A   Clear
9:53 AM 64.9 °F 52.0 °F 63% 30.24 in 10.0 mi North 11.5 mph - N/A   Clear
10:53 AM 68.0 °F 54.0 °F 61% 30.23 in 10.0 mi North 8.1 mph - N/A   Clear
11:53 AM 71.1 °F 52.0 °F 51% 30.22 in 10.0 mi NE 10.4 mph 19.6 mph N/A   Clear
12:15 PM 72.0 °F 53.1 °F 51% 30.23 in 10.0 mi ENE 12.7 mph - N/A   Clear
12:53 PM 73.0 °F 52.0 °F 48% 30.22 in 10.0 mi NNE 11.5 mph 18.4 mph N/A   Clear
1:53 PM 73.9 °F 52.0 °F 46% 30.20 in 10.0 mi North 10.4 mph - 0.00 in   Clear
2:53 PM 75.9 °F 52.0 °F 43% 30.19 in 10.0 mi Variable 5.8 mph - 0.00 in   Clear
3:53 PM 75.9 °F 52.0 °F 43% 30.17 in 10.0 mi NNE 8.1 mph - 0.00 in   Clear
4:53 PM 75.0 °F 51.1 °F 43% 30.17 in 10.0 mi North 8.1 mph - N/A   Clear
5:53 PM 73.9 °F 51.1 °F 45% 30.17 in 10.0 mi NNW 6.9 mph - N/A   Clear
6:53 PM 64.9 °F 54.0 °F 68% 30.18 in 10.0 mi Calm Calm - N/A   Clear
7:53 PM 61.0 °F 55.0 °F 81% 30.19 in 10.0 mi Calm Calm - N/A   Clear
8:53 PM 57.9 °F 54.0 °F 87% 30.20 in 10.0 mi SW 3.5 mph - N/A   Clear
9:53 PM 55.9 °F 53.1 °F 90% 30.21 in 10.0 mi SW 5.8 mph - N/A   Clear
10:53 PM 55.0 °F 52.0 °F 89% 30.21 in 10.0 mi Calm Calm - N/A   Clear
11:53 PM 54.0 °F 52.0 °F 93% 30.21 in 10.0 mi WSW 5.8 mph - N/A   Clear